[[{"header":{"parameterUnit":"m.s-1","parameterCategory":1,"la1":30.2991,"la2":30.254,"lo1":-89.0895,"lo2":-89.0444,"dy":0.0017,"dx":0.0017,"nx":28,"ny":28,"refTime":"2025-06-03T09:00:00:Z","depth":0,"parameterNumber":2,"parameterNumberName":"U-component_of_WINDS"},"data":[0,0,0,0,0,0,0,0,0,0,0,0,0,0,0,0,0,0,0,0,0,0,0,0,0,0,0,0,0,0,0,0,0,0,0,0,0,0,0,0,0,0,0,0,0,0,0,0,0,0,0,0,0,0,0,0,0,0,-2.4108,-2.4109,0,-2.4137,-2.4137,-2.4137,-2.4036,-2.4033,-2.403,-2.4027,-2.4056,-2.4059,-2.4063,0,0,0,0,0,0,0,0,0,0,0,0,0,-2.3966,-2.3969,-2.4108,-2.4109,-2.4109,-2.4136,-2.4137,-2.4137,-2.4036,-2.4033,-2.4029,-2.4025,-2.4054,-2.4059,-2.4063,0,0,0,0,0,0,0,0,0,0,0,0,0,-2.4014,-2.397,-2.4108,-2.4062,-2.4058,-2.4136,-2.4137,-2.4137,-2.4037,-2.4032,-2.4028,-2.4024,-2.4053,-2.4058,-2.4063,-2.4188,0,0,-2.408,-2.4082,0,0,0,0,0,0,0,0,-2.4012,-2.402,-2.4068,-2.4065,-2.4061,-2.4078,-2.4097,-2.4154,-2.4038,-2.4045,-2.4027,-2.4021,-2.4067,-2.4071,-2.4086,-2.4189,-2.419,-2.408,-2.4084,-2.4086,-2.4088,0,0,0,0,0,0,0,-2.4009,-2.4018,-2.4119,-2.4069,-2.4065,-2.4039,-2.4041,-2.4108,-2.4081,-2.4044,-2.4037,-2.4041,-2.4064,-2.4081,-2.4086,-2.4191,-2.408,-2.4085,-2.4088,-2.4091,-2.4397,-2.4402,0,0,0,0,0,0,-2.4011,-2.4016,-2.4118,-2.412,-2.4025,-2.4046,-2.4048,-2.4077,-2.408,-2.4076,-2.4045,-2.4037,-2.4074,-2.408,-2.4086,-2.4232,-2.4086,-2.4091,-2.4094,-2.4392,-2.4398,-2.4403,0,0,0,0,0,0,-2.4009,-2.4021,-2.4117,-2.4066,-2.4076,-2.4053,-2.4087,-2.408,-2.4097,-2.4081,-2.4076,-2.4068,-2.4071,-2.4079,-2.4163,-2.4231,-2.4093,-2.4098,-2.4386,-2.4394,-2.4401,-2.4524,0,0,0,0,0,0,-2.4005,-2.4021,-2.4068,-2.4068,-2.4079,-2.4194,-2.4091,-2.4084,-2.4107,-2.4096,-2.4101,-2.4097,-2.4068,-2.4156,-2.4169,-2.4236,-2.4103,-2.438,-2.439,-2.4398,-2.4513,-2.4534,-2.4552,0,0,0,0,0,-2.4,-2.4102,-2.4071,-2.4084,-2.4138,-2.4198,-2.4205,-2.4169,-2.4113,-2.416,-2.4149,-2.4097,-2.4222,-2.4165,-2.4179,-2.4249,-2.4376,-2.4387,-2.4398,-2.4505,-2.453,-2.4552,0,0,0,0,0,0,-2.4111,-2.4101,-2.4067,-2.4171,-2.4187,-2.4181,-2.4239,-2.4197,-2.4229,-2.4217,-2.4171,-2.4173,-2.4265,-2.4266,-2.4203,-2.4369,-2.4289,-2.4303,-2.4366,-2.439,-2.4409,-2.4407,-2.4107,0,0,0,0,0,-2.4147,-2.4197,-2.4186,-2.4279,-2.4289,-2.4263,-2.4288,-2.4259,-2.4273,-2.4279,-2.4274,-2.429,-2.4332,-2.4361,-2.4399,-2.4513,-2.4512,-2.4568,-2.4588,-2.4604,-2.4616,-2.4676,-2.47,-2.444,-2.4439,-2.4439,0,0,-2.4223,-2.4224,-2.4258,-2.4301,-2.431,-2.4362,-2.4269,-2.4329,-2.4367,-2.4287,-2.4367,-2.4365,-2.4378,-2.4478,-2.4522,-2.4481,-2.4688,-2.4618,-2.4631,-2.4634,-2.469,-2.4715,-2.4737,-2.4447,-2.4446,-2.4445,0,0,-2.4388,-2.4394,-2.4472,-2.4482,-2.4496,-2.4479,-2.4498,-2.4499,-2.4494,-2.4573,-2.4514,-2.4559,-2.4634,-2.4646,-2.4662,-2.4832,-2.4785,-2.4846,-2.4947,-2.5006,-2.5026,-2.5044,-2.5104,-2.5127,-2.4859,-2.4859,-2.4859,0,-2.448,-2.4557,-2.4517,-2.4581,-2.4602,-2.4532,-2.4611,-2.4623,-2.4649,-2.4664,-2.4619,-2.471,-2.4715,-2.4816,-2.4858,-2.4873,-2.4893,-2.4845,-2.5027,-2.5044,-2.506,-2.5117,-2.514,-2.4866,-2.4865,-2.4865,-2.4864,0,-2.467,-2.4724,-2.4786,-2.4812,-2.484,-2.4911,-2.4882,-2.4914,-2.4883,-2.487,-2.4952,-2.4955,-2.4992,-2.5014,-2.4984,-2.5112,-2.5086,-2.5034,-2.4952,-2.5093,-2.5146,-2.5167,-2.4877,-2.4874,-2.4872,-2.487,0,0,-2.4904,-2.4909,-2.4932,-2.4943,-2.4953,-2.4994,-2.5062,-2.5099,-2.5127,-2.5148,-2.5203,-2.5268,-2.522,-2.5238,-2.5209,-2.5261,-2.5395,-2.5203,-2.5203,-2.5238,-2.5535,-2.5573,-2.5599,-2.5364,-2.5368,-2.5371,-2.5533,0,-2.5066,-2.5182,-2.5148,-2.5264,-2.5313,-2.5249,-2.5308,-2.532,-2.531,-2.5351,-2.5339,-2.5386,-2.532,-2.533,-2.5379,-2.5369,-2.5454,-2.5357,-2.5415,-2.5417,-2.5413,-2.5626,-2.5667,-2.5819,-2.5554,-2.5557,-2.556,0,-2.5269,-2.5298,-2.5419,-2.5421,-2.544,-2.5494,-2.5525,-2.5565,-2.5578,-2.5567,-2.5588,-2.5548,-2.5614,-2.5533,-2.5623,-2.5558,-2.558,-2.5579,-2.5584,-2.5587,-2.5497,-2.5635,-2.5867,-2.589,-2.5592,-2.5589,-2.5587,0,-2.5427,-2.5496,-2.5577,-2.5589,-2.5593,-2.5633,-2.5636,-2.5645,-2.5669,-2.5696,-2.5711,-2.5746,-2.5765,-2.5793,-2.5764,-2.5707,-2.5859,-2.5775,-2.5851,-2.5852,-2.5885,-2.5883,-2.6124,-2.5901,-2.59,-2.59,-2.59,0,-2.5611,-2.5687,-2.5648,-2.5698,-2.5782,-2.5743,-2.5827,-2.5823,-2.5831,-2.5879,-2.5825,-2.5871,-2.583,-2.5873,-2.5851,-2.5929,-2.5938,-2.593,-2.5923,-2.5935,-2.5936,-2.5948,-2.5936,-2.5906,-2.5905,-2.5904,-2.5902,0,-2.5801,-2.5778,-2.5862,-2.586,-2.5861,-2.5923,-2.592,-2.5966,-2.5953,-2.6014,-2.6026,-2.6005,-2.6052,-2.6026,-2.6074,-2.6059,-2.616,-2.6139,-2.6156,-2.615,-2.6228,-2.622,-2.6484,-2.6516,-2.6273,-2.6276,-2.6278,0,-2.5919,-2.5976,-2.598,-2.6008,-2.6016,-2.6062,-2.6087,-2.605,-2.6078,-2.6098,-2.6141,-2.6184,-2.6216,-2.6294,-2.6283,-2.632,-2.6298,-2.6388,-2.6304,-2.6313,-2.6299,-2.6296,-2.6301,-2.6405,-2.6408,-2.641,-2.6412,0,-2.613,-2.6116,-2.6154,-2.6188,-2.6219,-2.6244,-2.6264,-2.6291,-2.6254,-2.6288,-2.6336,-2.6361,-2.6411,-2.6453,-2.6485,-2.6488,-2.6445,-2.6439,-2.6458,-2.647,-2.6477,-2.6474,-2.6202,-2.6433,-2.6431,-2.6429,-2.6428,-2.6427,-2.6287,-2.6335,-2.6345,-2.6389,-2.6401,-2.6421,-2.6464,-2.6456,-2.6495,-2.6533,-2.6509,-2.6565,-2.6577,-2.6615,-2.6624,-2.6667,-2.6631,-2.6659,-2.6666,-2.6674,-2.6684,-2.6471,-2.6673,-2.6672,-2.6671,-2.6671,-2.6671,0,-2.6495,-2.6499,-2.654,-2.657,-2.6604,-2.6561,-2.6581,-2.6613,-2.6663,-2.6677,-2.671,-2.6765,-2.6806,-2.6799,-2.6836,-2.6872,-2.6853,-2.6883,-2.688,-2.6881,-2.6714,-2.6693,-2.6898,-2.6898,-2.6898,-2.6898,-2.6898,-2.6898,-2.6607,-2.6686,-2.6673,-2.6757,-2.676,-2.6814,-2.683,-2.6848,-2.686,-2.6924,-2.6958,-2.6953,-2.6958,-2.6996,-2.7032,-2.7028,-2.7044,-2.7082,-2.7071,-2.6915,-2.6893,-2.6871,-2.6851,-2.7086,-2.7086,-2.7234,-2.7236,-2.7237]},{"header":{"parameterUnit":"m.s-1","parameterCategory":1,"la1":30.2991,"la2":30.254,"lo1":-89.0895,"lo2":-89.0444,"dy":0.0017,"dx":0.0017,"nx":28,"ny":28,"refTime":"2025-06-03T09:00:00:Z","depth":0,"parameterNumber":3,"parameterNumberName":"V-component_of_WINDS"},"data":[0,0,0,0,0,0,0,0,0,0,0,0,0,0,0,0,0,0,0,0,0,0,0,0,0,0,0,0,0,0,0,0,0,0,0,0,0,0,0,0,0,0,0,0,0,0,0,0,0,0,0,0,0,0,0,0,0,0,-0.8336,-0.8337,0,-0.8474,-0.8475,-0.8477,-0.8568,-0.8568,-0.8569,-0.8569,-0.8713,-0.8717,-0.872,0,0,0,0,0,0,0,0,0,0,0,0,0,-0.8153,-0.8156,-0.8335,-0.8337,-0.8339,-0.8473,-0.8475,-0.8477,-0.8568,-0.8568,-0.8569,-0.857,-0.8712,-0.8716,-0.872,0,0,0,0,0,0,0,0,0,0,0,0,0,-0.8256,-0.8157,-0.8335,-0.84,-0.8407,-0.8473,-0.8475,-0.8478,-0.8567,-0.8568,-0.8569,-0.857,-0.8711,-0.8716,-0.8721,-0.8733,0,0,-0.8736,-0.8738,0,0,0,0,0,0,0,0,-0.825,-0.8262,-0.8389,-0.8396,-0.8404,-0.8504,-0.8464,-0.8563,-0.8567,-0.8507,-0.8569,-0.857,-0.8643,-0.8654,-0.8678,-0.874,-0.8746,-0.8736,-0.8739,-0.8741,-0.8743,0,0,0,0,0,0,0,-0.8242,-0.8257,-0.839,-0.8391,-0.84,-0.8423,-0.8439,-0.8483,-0.8568,-0.8512,-0.8519,-0.8534,-0.8648,-0.8673,-0.8682,-0.8748,-0.8736,-0.874,-0.8743,-0.8745,-0.8828,-0.8828,0,0,0,0,0,0,-0.8225,-0.825,-0.8386,-0.8394,-0.8327,-0.8426,-0.8443,-0.8471,-0.8568,-0.8584,-0.8533,-0.8538,-0.8664,-0.8676,-0.8687,-0.8709,-0.8741,-0.8746,-0.8749,-0.8829,-0.8828,-0.8827,0,0,0,0,0,0,-0.822,-0.8236,-0.838,-0.8324,-0.8344,-0.8428,-0.8459,-0.8473,-0.8499,-0.8584,-0.86,-0.8543,-0.8665,-0.868,-0.8721,-0.8715,-0.8748,-0.8753,-0.883,-0.8829,-0.8828,-0.8751,0,0,0,0,0,0,-0.8215,-0.8234,-0.8239,-0.8324,-0.8347,-0.8411,-0.8458,-0.8476,-0.8507,-0.8514,-0.8598,-0.8612,-0.8667,-0.8713,-0.8726,-0.8722,-0.8756,-0.8831,-0.8829,-0.8828,-0.8754,-0.8747,-0.8741,0,0,0,0,0,-0.8208,-0.8212,-0.8239,-0.8254,-0.8355,-0.841,-0.8424,-0.8486,-0.8506,-0.8512,-0.8567,-0.861,-0.8713,-0.8717,-0.8732,-0.8729,-0.8832,-0.883,-0.8828,-0.8757,-0.8749,-0.8741,0,0,0,0,0,0,-0.8126,-0.8225,-0.8255,-0.8287,-0.8339,-0.8425,-0.8435,-0.8475,-0.8523,-0.8528,-0.8604,-0.8622,-0.8655,-0.8697,-0.8699,-0.8747,-0.8778,-0.8779,-0.8719,-0.8711,-0.8705,-0.8694,-0.8761,0,0,0,0,0,-0.8111,-0.8147,-0.8232,-0.8252,-0.8276,-0.8351,-0.8377,-0.842,-0.8478,-0.8501,-0.8559,-0.8614,-0.8659,-0.8688,-0.8734,-0.8761,-0.8781,-0.8767,-0.876,-0.8754,-0.8754,-0.8772,-0.8767,-0.8822,-0.8822,-0.8822,0,0,-0.8082,-0.814,-0.8158,-0.8236,-0.8282,-0.8318,-0.8369,-0.8405,-0.8433,-0.8507,-0.8549,-0.8593,-0.866,-0.8693,-0.8711,-0.8729,-0.8744,-0.8752,-0.8747,-0.875,-0.877,-0.8764,-0.876,-0.8821,-0.8821,-0.8821,0,0,-0.8046,-0.8094,-0.8116,-0.816,-0.8228,-0.8278,-0.8283,-0.8363,-0.8395,-0.8438,-0.8494,-0.8529,-0.8605,-0.865,-0.8683,-0.8664,-0.8705,-0.8677,-0.8643,-0.8659,-0.8655,-0.8651,-0.8644,-0.8641,-0.8677,-0.8677,-0.8677,0,-0.8001,-0.8057,-0.8122,-0.8154,-0.8187,-0.8255,-0.8278,-0.8319,-0.8399,-0.842,-0.8439,-0.8536,-0.8585,-0.8631,-0.8626,-0.865,-0.8659,-0.8668,-0.865,-0.8647,-0.8645,-0.8639,-0.8636,-0.8673,-0.8673,-0.8674,-0.8674,0,-0.7998,-0.8036,-0.8045,-0.812,-0.8154,-0.8181,-0.8251,-0.8278,-0.8318,-0.8366,-0.8409,-0.8471,-0.8531,-0.8545,-0.8585,-0.8596,-0.8604,-0.8635,-0.8668,-0.8634,-0.8631,-0.8629,-0.8667,-0.8669,-0.867,-0.8671,0,0,-0.7916,-0.8025,-0.8027,-0.8062,-0.8142,-0.8173,-0.8203,-0.8261,-0.8283,-0.8336,-0.8364,-0.8426,-0.8455,-0.8492,-0.8538,-0.8552,-0.8533,-0.8582,-0.8584,-0.857,-0.8549,-0.8525,-0.8522,-0.8561,-0.8561,-0.8561,-0.8543,0,-0.7892,-0.795,-0.8009,-0.8046,-0.8082,-0.8147,-0.8174,-0.8226,-0.8271,-0.8309,-0.836,-0.8403,-0.8438,-0.846,-0.8477,-0.8532,-0.853,-0.8534,-0.8588,-0.8589,-0.8569,-0.852,-0.8495,-0.8476,-0.8542,-0.8542,-0.8542,0,-0.7873,-0.7922,-0.7962,-0.8038,-0.8055,-0.8078,-0.8136,-0.8171,-0.8231,-0.8264,-0.8304,-0.8353,-0.8389,-0.8417,-0.8469,-0.847,-0.8496,-0.8526,-0.8527,-0.8534,-0.8564,-0.8526,-0.8471,-0.8468,-0.854,-0.854,-0.8541,0,-0.7809,-0.7884,-0.7918,-0.7945,-0.8035,-0.805,-0.8088,-0.815,-0.8181,-0.8231,-0.8252,-0.8306,-0.8336,-0.8377,-0.8439,-0.8454,-0.8484,-0.8517,-0.8512,-0.8511,-0.8516,-0.8515,-0.8465,-0.8532,-0.8532,-0.8532,-0.8532,0,-0.7777,-0.7799,-0.789,-0.7911,-0.7937,-0.8006,-0.8031,-0.8075,-0.8129,-0.816,-0.822,-0.8248,-0.8328,-0.8366,-0.8415,-0.845,-0.8463,-0.8491,-0.8503,-0.8485,-0.8482,-0.8503,-0.8506,-0.8532,-0.8532,-0.8532,-0.8532,0,-0.7709,-0.7771,-0.7812,-0.7894,-0.7915,-0.7931,-0.8001,-0.8024,-0.8072,-0.8111,-0.8124,-0.82,-0.8248,-0.8313,-0.8382,-0.8414,-0.8443,-0.8463,-0.8422,-0.843,-0.8421,-0.8421,-0.8383,-0.8382,-0.8449,-0.8448,-0.8448,0,-0.7685,-0.7703,-0.7786,-0.781,-0.7846,-0.7885,-0.7916,-0.7984,-0.8015,-0.8085,-0.81,-0.8152,-0.8197,-0.827,-0.8332,-0.8384,-0.8407,-0.839,-0.8415,-0.8396,-0.8406,-0.8405,-0.8407,-0.8383,-0.8382,-0.8381,-0.8381,0,-0.7635,-0.7664,-0.7707,-0.7759,-0.7795,-0.784,-0.7888,-0.7905,-0.7983,-0.8014,-0.8063,-0.8098,-0.8167,-0.8218,-0.8278,-0.8319,-0.8363,-0.8372,-0.8374,-0.8356,-0.8331,-0.8344,-0.8405,-0.8373,-0.8374,-0.8374,-0.8375,-0.8375,-0.7589,-0.7608,-0.7669,-0.7714,-0.7757,-0.78,-0.7825,-0.7876,-0.7918,-0.7978,-0.8016,-0.8063,-0.8124,-0.821,-0.8248,-0.8287,-0.8304,-0.8307,-0.8308,-0.8307,-0.8301,-0.8324,-0.8298,-0.8298,-0.8299,-0.8299,-0.8299,0,-0.7542,-0.7584,-0.7625,-0.7689,-0.7725,-0.7762,-0.7817,-0.7844,-0.7884,-0.7937,-0.7979,-0.8035,-0.8085,-0.815,-0.8205,-0.8223,-0.8244,-0.8235,-0.8235,-0.8243,-0.8282,-0.8275,-0.8217,-0.8217,-0.8217,-0.8217,-0.8217,-0.8217,-0.7522,-0.7556,-0.7592,-0.7649,-0.7691,-0.7737,-0.7765,-0.7805,-0.7848,-0.7907,-0.7948,-0.799,-0.8048,-0.8107,-0.8154,-0.8172,-0.819,-0.8174,-0.8198,-0.8233,-0.8241,-0.8248,-0.8242,-0.8177,-0.8177,-0.8157,-0.8156,-0.8156]}]]